| time (UTC) | temp F | wind direction | speed MPH | gust MPH | rain 1hr in | rain 24hr in | rain mn in | humidity % | barometer mb |
| 20260906004544 | 67 | 165 | 1.0 | 4.0 | 0.00 | 0.03 | 0.02 | 70 | 1019.0 |
| 20260906003041 | 66 | 208 | 3.0 | 7.0 | 0.00 | 0.03 | 0.02 | 78 | 1019.2 |
| 20260906001542 | 63 | 163 | 1.0 | 6.0 | 0.00 | 0.03 | 0.02 | 83 | 1019.4 |
| 20260906000042 | 62 | 146 | 1.0 | 6.0 | 0.02 | 0.03 | 0.02 | 83 | 1019.4 |
| 20260905234542 | 62 | 153 | 2.0 | 6.0 | 0.02 | 0.03 | 0.02 | 81 | 1019.4 |
| 20260905233039 | 63 | 161 | 0.0 | 4.0 | 0.02 | 0.03 | 0.02 | 77 | 1019.3 |
| 20260905231617 | 66 | 149 | 1.0 | 10.0 | 0.02 | 0.03 | 0.00 | 68 | 1019.2 |
| 20260905230159 | 66 | 239 | 0.0 | 3.0 | 0.00 | 0.01 | 0.00 | 67 | 1019.1 |
| 20260905224542 | 67 | 263 | 0.0 | 1.0 | 0.00 | 0.01 | 0.00 | 67 | 1019.0 |
| 20260905223039 | 68 | 292 | 0.0 | 1.0 | 0.00 | 0.01 | 0.00 | 66 | 1019.0 |
| 20260905221544 | 69 | 335 | 0.0 | 1.0 | 0.00 | 0.01 | 0.00 | 62 | 1019.0 |
| 20260905220041 | 70 | 359 | 0.0 | 3.0 | 0.00 | 0.01 | 0.00 | 59 | 1019.0 |
| 20260905214543 | 69 | 349 | 0.0 | 0.0 | 0.00 | 0.01 | 0.00 | 62 | 1019.1 |
| 20260905213040 | 69 | 236 | 0.0 | 2.0 | 0.00 | 0.01 | 0.00 | 61 | 1019.2 |
| 20260905211541 | 69 | 150 | 0.0 | 3.0 | 0.00 | 0.01 | 0.00 | 59 | 1019.4 |
| 20260905210041 | 69 | 190 | 1.0 | 3.0 | 0.00 | 0.01 | 0.00 | 60 | 1019.5 |
| 20260905204542 | 69 | 210 | 0.0 | 4.0 | 0.00 | 0.01 | 0.00 | 61 | 1019.6 |
| 20260905203040 | 69 | 267 | 0.0 | 3.0 | 0.00 | 0.01 | 0.00 | 60 | 1019.6 |
| 20260905201543 | 70 | 248 | 0.0 | 3.0 | 0.00 | 0.01 | 0.00 | 62 | 1019.6 |
| 20260905200041 | 67 | 41 | 0.0 | 4.0 | 0.00 | 0.01 | 0.00 | 65 | 1019.8 |
| 20260905193040 | 69 | 246 | 0.0 | 3.0 | 0.00 | 0.01 | 0.00 | 62 | 1020.0 |
| 20260905191541 | 70 | 343 | 0.0 | 3.0 | 0.00 | 0.01 | 0.00 | 66 | 1020.2 |
| 20260905190044 | 67 | 292 | 0.0 | 1.0 | 0.00 | 0.01 | 0.00 | 70 | 1020.4 |
| 20260905184543 | 66 | 35 | 0.0 | 3.0 | 0.00 | 0.01 | 0.00 | 74 | 1020.7 |
| 20260905181543 | 63 | 222 | 0.0 | 3.0 | 0.00 | 0.01 | 0.00 | 85 | 1021.1 |
| 20260905180159 | 60 | 209 | 0.0 | 1.0 | 0.00 | 0.01 | 0.00 | 89 | 1021.2 |
| 20260905174542 | 58 | 181 | 0.0 | 0.0 | 0.00 | 0.01 | 0.00 | 91 | 1021.2 |
| 20260905173042 | 57 | 112 | 0.0 | 1.0 | 0.00 | 0.01 | 0.00 | 92 | 1021.2 |
| 20260905170042 | 56 | 153 | 0.0 | 0.0 | 0.00 | 0.01 | 0.00 | 96 | 1021.2 |
| 20260905164540 | 55 | 157 | 0.0 | 0.0 | 0.00 | 0.01 | 0.00 | 97 | 1021.2 |
| 20260905163042 | 55 | 157 | 0.0 | 0.0 | 0.00 | 0.01 | 0.00 | 98 | 1021.1 |
| 20260905161541 | 55 | 166 | 0.0 | 0.0 | 0.00 | 0.01 | 0.00 | 98 | 1021.1 |
| 20260905160043 | 54 | 360 | 0.0 | 0.0 | 0.00 | 0.01 | 0.00 | 98 | 1021.1 |
| 20260905154544 | 53 | 5 | 0.0 | 0.0 | 0.00 | 0.01 | 0.00 | 98 | 1021.1 |
| 20260905151540 | 52 | 202 | 0.0 | 0.0 | 0.00 | 0.01 | 0.00 | 98 | 1021.1 |
| 20260905144543 | 52 | 135 | 0.0 | 0.0 | 0.00 | 0.01 | 0.00 | 98 | 1020.9 |
| 20260905141539 | 51 | 135 | 0.0 | 0.0 | 0.00 | 0.01 | 0.00 | 98 | 1020.8 |
| 20260905140042 | 50 | 148 | 0.0 | 1.0 | 0.00 | 0.01 | 0.00 | 98 | 1020.6 |
| 20260905134543 | 50 | 157 | 0.0 | 0.0 | 0.00 | 0.01 | 0.00 | 98 | 1020.4 |
| 20260905133042 | 50 | 157 | 0.0 | 0.0 | 0.00 | 0.01 | 0.00 | 98 | 1020.3 |
| 20260905131540 | 50 | 157 | 0.0 | 0.0 | 0.00 | 0.01 | 0.00 | 98 | 1020.3 |
| 20260905130040 | 51 | 157 | 0.0 | 0.0 | 0.00 | 0.02 | 0.00 | 98 | 1020.2 |
| 20260905124543 | 51 | 157 | 0.0 | 0.0 | 0.00 | 0.02 | 0.00 | 98 | 1020.2 |
| 20260905123121 | 51 | 157 | 0.0 | 0.0 | 0.00 | 0.02 | 0.00 | 97 | 1020.3 |
| 20260905121542 | 51 | 157 | 0.0 | 0.0 | 0.00 | 0.02 | 0.00 | 97 | 1020.3 |
| 20260905120043 | 50 | 197 | 0.0 | 1.0 | 0.00 | 0.02 | 0.00 | 97 | 1020.2 |
| 20260905114543 | 50 | 202 | 0.0 | 0.0 | 0.00 | 0.02 | 0.00 | 97 | 1020.1 |
| 20260905113039 | 51 | 202 | 0.0 | 0.0 | 0.00 | 0.02 | 0.00 | 97 | 1020.1 |
| 20260905110041 | 51 | 202 | 0.0 | 0.0 | 0.00 | 0.02 | 0.00 | 97 | 1020.0 |
| 20260905104543 | 51 | 202 | 0.0 | 0.0 | 0.00 | 0.02 | 0.00 | 97 | 1020.0 |
| 20260905103044 | 52 | 202 | 0.0 | 0.0 | 0.00 | 0.02 | 0.00 | 97 | 1020.0 |
| 20260905101543 | 52 | 202 | 0.0 | 0.0 | 0.00 | 0.03 | 0.00 | 97 | 1020.0 |
| 20260905100043 | 52 | 202 | 0.0 | 0.0 | 0.00 | 0.03 | 0.00 | 97 | 1020.0 |
| 20260905093042 | 52 | 202 | 0.0 | 0.0 | 0.00 | 0.03 | 0.00 | 97 | 1020.1 |
| 20260905091541 | 52 | 202 | 0.0 | 1.0 | 0.00 | 0.03 | 0.00 | 96 | 1020.0 |
| 20260905090042 | 53 | 202 | 0.0 | 0.0 | 0.00 | 0.03 | 0.00 | 96 | 1019.9 |
| 20260905084621 | 53 | 202 | 0.0 | 0.0 | 0.00 | 0.03 | 0.00 | 96 | 1019.9 |
| 20260905083041 | 52 | 202 | 0.0 | 0.0 | 0.00 | 0.03 | 0.00 | 96 | 1019.8 |
| 20260905081541 | 53 | 202 | 0.0 | 0.0 | 0.00 | 0.03 | 0.00 | 96 | 1019.6 |
| 20260905074540 | 53 | 202 | 0.0 | 0.0 | 0.00 | 0.03 | 0.00 | 96 | 1019.5 |
| 20260905073036 | 53 | 202 | 0.0 | 0.0 | 0.00 | 0.03 | 0.00 | 95 | 1019.3 |
| 20260905071537 | 54 | 195 | 0.0 | 2.0 | 0.00 | 0.03 | 0.00 | 95 | 1019.2 |
| 20260905061536 | 54 | 157 | 0.0 | 0.0 | 0.01 | 0.03 | 0.02 | 94 | 1018.9 |
| 20260905060037 | 54 | 157 | 0.0 | 0.0 | 0.00 | 0.02 | 0.02 | 94 | 1019.0 |
| 20260905054535 | 54 | 169 | 0.0 | 0.0 | 0.00 | 0.02 | 0.02 | 94 | 1018.9 |
| 20260905053036 | 54 | 202 | 0.0 | 0.0 | 0.00 | 0.02 | 0.02 | 94 | 1018.8 |
| 20260905051533 | 54 | 202 | 0.0 | 0.0 | 0.00 | 0.02 | 0.02 | 93 | 1018.8 |
| 20260905050151 | 54 | 202 | 0.0 | 0.0 | 0.00 | 0.02 | 0.02 | 93 | 1018.8 |
| 20260905044608 | 54 | 202 | 0.0 | 0.0 | 0.00 | 0.02 | 0.02 | 93 | 1018.8 |
| 20260905043142 | 54 | 202 | 0.0 | 0.0 | 0.00 | 0.02 | 0.02 | 92 | 1018.6 |
| 20260905041535 | 54 | 202 | 0.0 | 1.0 | 0.00 | 0.02 | 0.02 | 91 | 1018.6 |
| 20260905034533 | 55 | 191 | 0.0 | 1.0 | 0.00 | 0.02 | 0.02 | 90 | 1018.3 |
| 20260905033035 | 56 | 157 | 0.0 | 2.0 | 0.00 | 0.02 | 0.02 | 89 | 1018.1 |
| 20260905031535 | 56 | 157 | 0.0 | 0.0 | 0.00 | 0.02 | 0.02 | 88 | 1018.0 |
| 20260905030108 | 57 | 161 | 0.0 | 0.0 | 0.00 | 0.02 | 0.02 | 87 | 1017.9 |
| 20260905024536 | 57 | 201 | 0.0 | 2.0 | 0.00 | 0.02 | 0.02 | 85 | 1017.8 |
| 20260905023037 | 58 | 202 | 0.0 | 0.0 | 0.00 | 0.02 | 0.02 | 83 | 1017.9 |
| 20260905021537 | 60 | 219 | 0.0 | 2.0 | 0.00 | 0.02 | 0.02 | 78 | 1017.7 |
| 20260905014536 | 64 | 22 | 0.0 | 0.0 | 0.00 | 0.02 | 0.02 | 72 | 1017.3 |
| 20260905013034 | 64 | 22 | 0.0 | 0.0 | 0.00 | 0.02 | 0.02 | 75 | 1017.0 |
| 20260905010031 | 64 | 33 | 0.0 | 4.0 | 0.00 | 0.02 | 0.02 | 73 | 1017.0 |